This demonstration page uses our WeatherBlox Daily Observations layout. Learn more.

Left ArrowRight Arrow

39.08367, -84.50855

Hourly Observations for August 6, 2020

Temp ( °F °C ) Dew Point ( °F °C ) Humidity (%) Winds ( mph kmh ) Pressure ( in mb ) Visibility ( mi km ) Precip ( " mm )
12:53 am 00:53 Clear 61 16.1 58 14.4 90 90 NE 3 6 30.09 1019 10 16 N/A
1:53 am 01:53 Clear 58 14.4 57 13.9 97 97 N N/A 30.09 1019 10 16 N/A
2:53 am 02:53 Clear 59 15 57 13.9 93 93 N N/A 30.09 1019 10 16 N/A
3:53 am 03:53 Mostly Cloudy 58 14.4 57 13.9 97 97 N N/A 30.09 1019 10 16 N/A
4:53 am 04:53 Clear 58 14.4 57 13.9 97 97 N N/A 30.09 1019 10 16 N/A
5:53 am 05:53 Mostly Cloudy 58 14.4 57 13.9 97 97 N N/A 30.10 1019 10 16 N/A
6:53 am 06:53 Mostly Cloudy 59 15 57 13.9 93 93 N N/A 30.10 1019 10 16 N/A
7:53 am 07:53 Cloudy 60 15.6 58 14.4 93 93 N N/A 30.11 1020 10 16 N/A
8:53 am 08:53 Mostly Cloudy 65 18.3 59 15 81 81 N N/A 30.11 1020 10 16 N/A
9:53 am 09:53 Mostly Cloudy 70 21.1 58 14.4 66 66 NE 6 9 30.11 1020 10 16 N/A
10:53 am 10:53 Mostly Cloudy 73 22.8 58 14.4 59 59 ENE 6 9 30.12 1020 10 16 N/A
11:53 am 11:53 Partly Cloudy 75 23.9 59 15 58 58 VRB 3 6 30.12 1020 10 16 N/A
12:53 pm 12:53 Mostly Cloudy 76 24.4 58 14.4 54 54 NNE 7 11 30.11 1020 10 16 N/A
1:53 pm 13:53 Cloudy 77 25 60 15.6 56 56 NE 7 11 30.10 1019 10 16 N/A
2:53 pm 14:53 Partly Cloudy 79 26.1 59 15 50 50 VRB 3 6 30.09 1019 10 16 N/A
3:53 pm 15:53 Mostly Cloudy 78 25.6 58 14.4 50 50 NE 6 9 30.07 1018 10 16 N/A
4:53 pm 16:53 Mostly Cloudy 78 25.6 59 15 52 52 NE 5 7 30.07 1018 10 16 N/A
5:53 pm 17:53 Mostly Cloudy 79 26.1 60 15.6 52 52 NE 5 7 30.06 1018 10 16 N/A
6:53 pm 18:53 Mostly Cloudy 76 24.4 61 16.1 60 60 NE 6 9 30.06 1018 10 16 N/A
7:53 pm 19:53 Mostly Cloudy 74 23.3 62 16.7 67 67 ENE 3 6 30.06 1018 10 16 N/A
8:53 pm 20:53 Mostly Clear 67 19.4 63 17.2 87 87 N N/A 30.07 1018 10 16 N/A
9:53 pm 21:53 Mostly Clear 66 18.9 61 16.1 84 84 N N/A 30.07 1018 10 16 N/A
10:53 pm 22:53 Clear 63 17.2 61 16.1 93 93 N N/A 30.08 1019 10 16 N/A
11:53 pm 23:53 Clear 63 17.2 60 15.6 90 90 N N/A 30.09 1019 10 16 N/A

Powered by AerisWeather